Ankeny, IA

2:03 PM CDT on July 26, 2017 (GMT -0500)
Ankeny Regional

Weather History for KIKV - August, 2013

Change the Weather History Date:

Tuesday, August 27, 2013

  Actual Average (KDSM) Record (KDSM)
Temperature  
Mean Temperature 88 °F -  
Max Temperature 98 °F 81 °F 99 °F (1955)
Min Temperature 78 °F 62 °F 45 °F (1986)
Cooling Degree Days 23    
Growing Degree Days 38 (Base 50)    
Moisture  
Dew Point 69 °F    
Average Humidity 56    
Maximum Humidity 74    
Minimum Humidity 37    
Precipitation  
Precipitation 0.00 in - - ()
Sea Level Pressure  
Sea Level Pressure 29.93 in    
Wind  
Wind Speed 12 mph (SW)    
Max Wind Speed 21 mph    
Max Gust Speed 32 mph    
Visibility 10 miles    
Events      
Averages and records for this station are not official NWS values.
T = Trace of Precipitation, MM = Missing Value Source: NWS Daily Summary

Daily Weather History Graph

Daily Weather History Graph

Search for Another Location

Airport or City:

Trip Planner

Search our weather history database for the weather conditions in past years. The results will help you decide how hot, cold, wet, or windy it might be!

Date:

Astronomy

Aug. 27, 2013 Rise Set
Actual Time 6:35 AM CDT 7:55 PM CDT
Civil Twilight 6:06 AM CDT 8:24 PM CDT
Nautical Twilight 5:31 AM CDT 8:58 PM CDT
Astronomical Twilight 4:55 AM CDT 9:35 PM CDT
Moon 11:42 PM CDT (8/27) 1:40 PM CDT (8/27)
Length of Visible Light 14h 17m
Length of Day
13h 19m
Waning Gibbous, 57% of the Moon is Illuminated
Aug 27
Waning Gibbous
Aug 28
Last Quarter
Sep 5
New
Sep 12
First Quarter
Sep 19
Full

Hourly Weather History & Observations

Time (CDT) Temp. Heat Index Dew Point Humidity Pressure Visibility Wind Dir Wind Speed Gust Speed Precip Events Conditions
12:15 AM 82.4 °F 86.3 °F 69.8 °F 66% 29.98 in 10.0 mi SSW 11.5 mph - N/A   Clear
12:35 AM 82.4 °F 86.3 °F 69.8 °F 66% 29.98 in 10.0 mi SW 12.7 mph 19.6 mph N/A   Clear
12:55 AM 82.4 °F 86.3 °F 69.8 °F 66% 29.98 in 10.0 mi SW 11.5 mph 17.3 mph N/A   Clear
1:15 AM 82.4 °F 86.3 °F 69.8 °F 66% 29.98 in 10.0 mi SW 11.5 mph 17.3 mph N/A   Clear
1:35 AM 82.4 °F 86.3 °F 69.8 °F 66% 29.97 in 10.0 mi SW 12.7 mph 19.6 mph N/A   Clear
1:55 AM 80.6 °F 83.9 °F 69.8 °F 70% 29.97 in 10.0 mi SW 9.2 mph - N/A   Clear
2:15 AM 80.6 °F 83.9 °F 69.8 °F 70% 29.97 in 10.0 mi SW 10.4 mph - N/A   Clear
2:35 AM 80.6 °F 83.9 °F 69.8 °F 70% 29.96 in 10.0 mi SW 9.2 mph - N/A   Clear
2:55 AM 80.6 °F 83.9 °F 69.8 °F 70% 29.96 in 10.0 mi SW 8.1 mph 16.1 mph N/A   Clear
3:15 AM 80.6 °F 83.9 °F 69.8 °F 70% 29.96 in 10.0 mi SW 10.4 mph - N/A   Clear
3:35 AM 80.6 °F 83.9 °F 69.8 °F 70% 29.96 in 10.0 mi SW 9.2 mph - N/A   Clear
3:55 AM 80.6 °F 83.9 °F 69.8 °F 70% 29.96 in 10.0 mi SW 9.2 mph 16.1 mph N/A   Clear
4:15 AM 80.6 °F 83.9 °F 69.8 °F 70% 29.95 in 10.0 mi SW 13.8 mph - N/A   Clear
4:35 AM 80.6 °F 83.9 °F 69.8 °F 70% 29.95 in 10.0 mi SW 12.7 mph - N/A   Clear
4:55 AM 78.8 °F - 69.8 °F 74% 29.95 in 10.0 mi SW 12.7 mph 19.6 mph N/A   Clear
5:15 AM 78.8 °F - 68.0 °F 69% 29.95 in 10.0 mi SW 10.4 mph 19.6 mph N/A   Clear
5:35 AM 78.8 °F - 68.0 °F 69% 29.95 in 10.0 mi SW 10.4 mph 17.3 mph N/A   Clear
5:55 AM 78.8 °F - 68.0 °F 69% 29.95 in 10.0 mi SW 11.5 mph 17.3 mph N/A   Clear
6:15 AM 78.8 °F - 68.0 °F 69% 29.95 in 10.0 mi SW 12.7 mph 18.4 mph N/A   Clear
6:35 AM 78.8 °F - 68.0 °F 69% 29.96 in 10.0 mi SW 12.7 mph - N/A   Clear
6:55 AM 78.8 °F - 68.0 °F 69% 29.96 in 10.0 mi SW 11.5 mph - N/A   Clear
7:15 AM 78.8 °F - 68.0 °F 69% 29.97 in 10.0 mi SW 11.5 mph - N/A   Clear
7:35 AM 78.8 °F - 68.0 °F 69% 29.97 in 10.0 mi SSW 9.2 mph 16.1 mph N/A   Clear
7:55 AM 78.8 °F - 68.0 °F 69% 29.97 in 10.0 mi SW 12.7 mph - N/A   Clear
8:15 AM 80.6 °F 83.2 °F 68.0 °F 65% 29.97 in 10.0 mi SW 11.5 mph - N/A   Clear
8:35 AM 80.6 °F 83.2 °F 68.0 °F 65% 29.96 in 10.0 mi SW 12.7 mph 18.4 mph N/A   Clear
8:55 AM 82.4 °F 85.4 °F 68.0 °F 62% 29.95 in 10.0 mi SW 11.5 mph 19.6 mph N/A   Clear
9:15 AM 84.2 °F 87.3 °F 68.0 °F 58% 29.95 in 10.0 mi SW 15.0 mph 20.7 mph N/A   Clear
9:35 AM 86.0 °F 89.4 °F 68.0 °F 55% 29.95 in 10.0 mi SW 13.8 mph 19.6 mph N/A   Clear
9:55 AM 86.0 °F 89.4 °F 68.0 °F 55% 29.95 in 10.0 mi WSW 13.8 mph 23.0 mph N/A   Clear
10:15 AM 87.8 °F 91.4 °F 68.0 °F 52% 29.95 in 10.0 mi SW 16.1 mph 23.0 mph N/A   Clear
10:35 AM 87.8 °F 91.4 °F 68.0 °F 52% 29.94 in 10.0 mi SW 15.0 mph 25.3 mph N/A   Clear
10:55 AM 89.6 °F 93.4 °F 68.0 °F 49% 29.94 in 10.0 mi SW 16.1 mph 25.3 mph N/A   Clear
11:15 AM 91.4 °F 95.4 °F 68.0 °F 46% 29.94 in 10.0 mi SW 13.8 mph 19.6 mph N/A   Clear
11:35 AM 91.4 °F 95.4 °F 68.0 °F 46% 29.94 in 10.0 mi SW 15.0 mph 20.7 mph N/A   Clear
11:55 AM 91.4 °F 95.4 °F 68.0 °F 46% 29.94 in 10.0 mi SW 11.5 mph 20.7 mph N/A   Clear
12:15 PM 93.2 °F 97.7 °F 68.0 °F 44% 29.93 in 10.0 mi SW 16.1 mph 21.9 mph N/A   Clear
12:35 PM 93.2 °F 97.7 °F 68.0 °F 44% 29.92 in 10.0 mi SSW 16.1 mph 21.9 mph N/A   Clear
12:55 PM 93.2 °F 97.7 °F 68.0 °F 44% 29.92 in 10.0 mi SSW 18.4 mph 25.3 mph N/A   Clear
1:15 PM 93.2 °F 97.7 °F 68.0 °F 44% 29.91 in 10.0 mi WSW 13.8 mph 20.7 mph N/A   Clear
1:35 PM 95.0 °F 101.3 °F 69.8 °F 44% 29.91 in 10.0 mi SW 12.7 mph 21.9 mph N/A   Clear
1:55 PM 95.0 °F 99.5 °F 68.0 °F 41% 29.90 in 10.0 mi SSW 15.0 mph 24.2 mph N/A   Clear
2:15 PM 95.0 °F 99.5 °F 68.0 °F 41% 29.90 in 10.0 mi SW 15.0 mph 24.2 mph N/A   Clear
2:35 PM 96.8 °F 103.1 °F 69.8 °F 41% 29.90 in 10.0 mi SSW 17.3 mph - N/A   Clear
2:55 PM 96.8 °F 103.1 °F 69.8 °F 41% 29.89 in 10.0 mi SSW 17.3 mph - N/A   Clear
3:15 PM 96.8 °F 101.8 °F 68.0 °F 39% 29.89 in 10.0 mi SW 18.4 mph - N/A   Clear
3:35 PM 96.8 °F 101.8 °F 68.0 °F 39% 29.89 in 10.0 mi SW 17.3 mph 32.2 mph N/A   Clear
3:55 PM 98.6 °F 104.1 °F 68.0 °F 37% 29.88 in 10.0 mi SW 18.4 mph 26.5 mph N/A   Clear
4:15 PM 96.8 °F 101.8 °F 68.0 °F 39% 29.88 in 10.0 mi SW 18.4 mph 26.5 mph N/A   Clear
4:35 PM 96.8 °F 101.8 °F 68.0 °F 39% 29.87 in 10.0 mi SSW 20.7 mph - N/A   Clear
4:55 PM 96.8 °F 101.8 °F 68.0 °F 39% 29.88 in 10.0 mi SW 19.6 mph - N/A   Clear
5:15 PM 96.8 °F 101.8 °F 68.0 °F 39% 29.87 in 10.0 mi SW 15.0 mph 23.0 mph N/A   Clear
5:35 PM 96.8 °F 101.8 °F 68.0 °F 39% 29.88 in 10.0 mi SW 13.8 mph 23.0 mph N/A   Clear
5:55 PM 96.8 °F 101.8 °F 68.0 °F 39% 29.88 in 10.0 mi SW 16.1 mph 24.2 mph N/A   Clear
6:15 PM 95.0 °F 99.5 °F 68.0 °F 41% 29.88 in 10.0 mi SW 16.1 mph 23.0 mph N/A   Clear
6:35 PM 95.0 °F 101.3 °F 69.8 °F 44% 29.88 in 10.0 mi SW 16.1 mph - N/A   Clear
6:55 PM 93.2 °F 98.8 °F 69.8 °F 46% 29.88 in 10.0 mi SW 10.4 mph 19.6 mph N/A   Clear
7:15 PM 91.4 °F 96.8 °F 69.8 °F 49% 29.88 in 10.0 mi SW 12.7 mph 18.4 mph N/A   Clear
7:35 PM 91.4 °F 96.8 °F 69.8 °F 49% 29.89 in 10.0 mi SW 9.2 mph 15.0 mph N/A   Clear
7:55 PM 89.6 °F 94.7 °F 69.8 °F 52% 29.90 in 10.0 mi SW 11.5 mph - N/A   Clear
8:15 PM 89.6 °F 94.7 °F 69.8 °F 52% 29.90 in 10.0 mi SW 10.4 mph - N/A   Clear
8:35 PM 87.8 °F 92.6 °F 69.8 °F 55% 29.91 in 10.0 mi SW 9.2 mph - N/A   Clear
8:55 PM 87.8 °F 92.6 °F 69.8 °F 55% 29.91 in 10.0 mi SW 12.7 mph - N/A   Clear
9:15 PM 87.8 °F 92.6 °F 69.8 °F 55% 29.92 in 10.0 mi SW 10.4 mph - N/A   Clear
9:35 PM 86.0 °F 90.4 °F 69.8 °F 58% 29.92 in 10.0 mi SW 11.5 mph - N/A   Clear
9:55 PM 86.0 °F 90.4 °F 69.8 °F 58% 29.92 in 10.0 mi SW 10.4 mph - N/A   Clear
10:15 PM 86.0 °F 90.4 °F 69.8 °F 58% 29.92 in 10.0 mi SW 9.2 mph - N/A   Clear
10:35 PM 86.0 °F 89.4 °F 68.0 °F 55% 29.92 in 10.0 mi SW 9.2 mph - N/A   Clear
10:55 PM 84.2 °F 88.4 °F 69.8 °F 62% 29.92 in 10.0 mi SW 9.2 mph - N/A   Clear
11:15 PM 84.2 °F 88.4 °F 69.8 °F 62% 29.92 in 10.0 mi SW 6.9 mph 12.7 mph N/A   Clear
11:35 PM 82.4 °F 86.3 °F 69.8 °F 66% 29.93 in 10.0 mi SW 9.2 mph - N/A   Clear
11:55 PM 82.4 °F 85.4 °F 68.0 °F 62% 29.93 in 10.0 mi SW 8.1 mph - N/A   Clear